Radioactive Concentration measured by Seawater Radiation Monitor near Fukushima Daiichi Nuclear Power Station
Date,Time,Cs137(Bq/L),Cs134(Bq/L),Total β(Bq/L)
2020/03/17,00:00,0.18,ND,31
2020/03/17,00:10,0.17,ND,31
2020/03/17,00:20,0.16,ND,33
2020/03/17,00:30,0.17,ND,30
2020/03/17,00:40,0.16,ND,27
2020/03/17,00:50,0.18,ND,27
2020/03/17,01:00,0.17,ND,27
2020/03/17,01:10,0.17,ND,27
2020/03/17,01:20,0.16,ND,28
2020/03/17,01:30,0.15,ND,30
2020/03/17,01:40,0.16,ND,31
2020/03/17,01:50,0.16,ND,30
2020/03/17,02:00,0.14,ND,31
2020/03/17,02:10,0.14,ND,28
2020/03/17,02:20,0.15,ND,25
2020/03/17,02:30,0.15,ND,27
2020/03/17,02:40,0.14,ND,26
2020/03/17,02:50,0.13,ND,27
2020/03/17,03:00,0.15,ND,25
2020/03/17,03:10,0.16,ND,26
2020/03/17,03:20,0.16,ND,25
2020/03/17,03:30,0.16,ND,24
2020/03/17,03:40,0.17,ND,24
2020/03/17,03:50,0.18,ND,23
2020/03/17,04:00,0.17,ND,23
2020/03/17,04:10,0.17,ND,23
2020/03/17,04:20,0.18,ND,25
2020/03/17,04:30,0.16,ND,25
2020/03/17,04:40,0.15,ND,25
2020/03/17,04:50,0.15,ND,24
2020/03/17,05:00,0.14,ND,26
2020/03/17,05:10,0.14,ND,26
2020/03/17,05:20,0.13,ND,26
2020/03/17,05:30,0.12,ND,25
2020/03/17,05:40,0.13,ND,24
2020/03/17,05:50,0.13,ND,28
2020/03/17,06:00,0.14,ND,25
2020/03/17,06:10,0.13,ND,26
2020/03/17,06:20,0.13,ND,25
2020/03/17,06:30,0.12,ND,25
2020/03/17,06:40,0.12,ND,25
2020/03/17,06:50,0.11,ND,23
2020/03/17,07:00,0.095,ND,25
2020/03/17,07:10,0.11,ND,24
2020/03/17,07:20,0.12,ND,24
2020/03/17,07:30,0.13,ND,24
2020/03/17,07:40,0.13,ND,26
2020/03/17,07:50,0.12,ND,28
2020/03/17,08:00,0.11,ND,29
2020/03/17,08:10,0.099,ND,26
2020/03/17,08:20,0.093,ND,26
2020/03/17,08:30,0.086,ND,26
2020/03/17,08:40,0.094,ND,26
2020/03/17,08:50,0.10,ND,24
2020/03/17,09:00,0.12,ND,23
2020/03/17,09:10,0.11,ND,27
2020/03/17,09:20,0.097,ND,25
2020/03/17,09:30,0.12,ND,27
2020/03/17,09:40,0.13,ND,27
2020/03/17,09:50,0.12,ND,27
2020/03/17,10:00,0.12,ND,28
2020/03/17,10:10,0.14,ND,27
2020/03/17,10:20,0.15,ND,29
2020/03/17,10:30,0.15,ND,26
2020/03/17,10:40,0.15,ND,25
2020/03/17,10:50,0.16,ND,25
2020/03/17,11:00,0.17,ND,24
2020/03/17,11:10,0.16,ND,24
2020/03/17,11:20,0.17,ND,25
2020/03/17,11:30,0.15,ND,27
2020/03/17,11:40,0.14,ND,27
2020/03/17,11:50,0.14,ND,28
2020/03/17,12:00,0.099,ND,28
2020/03/17,12:10,0.14,ND,30
2020/03/17,12:20,0.13,ND,29
2020/03/17,12:30,0.14,ND,29
2020/03/17,12:40,0.14,ND,27
2020/03/17,12:50,0.14,ND,28
2020/03/17,13:00,0.17,ND,27
2020/03/17,13:10,0.18,ND,27
2020/03/17,13:20,0.18,ND,26
2020/03/17,13:30,0.18,ND,25
2020/03/17,13:40,0.20,ND,26
2020/03/17,13:50,0.21,ND,23
2020/03/17,14:00,0.21,ND,23
2020/03/17,14:10,0.21,ND,26
2020/03/17,14:20,0.22,ND,25
2020/03/17,14:30,0.21,ND,24
2020/03/17,14:40,0.22,ND,24
2020/03/17,14:50,0.21,ND,27
2020/03/17,15:00,0.20,ND,29
2020/03/17,15:10,0.21,ND,25
2020/03/17,15:20,0.20,ND,25
2020/03/17,15:30,0.20,ND,25
2020/03/17,15:40,0.20,ND,27
2020/03/17,15:50,0.19,ND,26
2020/03/17,16:00,0.20,ND,24
2020/03/17,16:10,0.18,ND,25
2020/03/17,16:20,0.18,ND,26
2020/03/17,16:30,0.19,ND,27
2020/03/17,16:40,0.17,ND,27
2020/03/17,16:50,0.17,ND,26
2020/03/17,17:00,0.17,ND,27
2020/03/17,17:10,0.16,ND,28
2020/03/17,17:20,0.17,ND,30
2020/03/17,17:30,0.18,ND,28
2020/03/17,17:40,0.18,ND,25
2020/03/17,17:50,0.17,ND,27
2020/03/17,18:00,0.16,ND,28
2020/03/17,18:10,0.18,ND,27
2020/03/17,18:20,0.19,ND,24
2020/03/17,18:30,0.19,ND,26
2020/03/17,18:40,0.20,ND,27
2020/03/17,18:50,0.20,ND,25
2020/03/17,19:00,0.20,ND,24
2020/03/17,19:10,0.18,ND,25
2020/03/17,19:20,0.18,ND,26
2020/03/17,19:30,0.17,ND,29
2020/03/17,19:40,0.18,ND,30
2020/03/17,19:50,0.19,ND,30
2020/03/17,20:00,0.18,ND,31
2020/03/17,20:10,0.20,ND,32
2020/03/17,20:20,0.20,ND,33
2020/03/17,20:30,0.18,ND,30
2020/03/17,20:40,0.17,ND,27
2020/03/17,20:50,0.16,ND,28
2020/03/17,21:00,0.17,ND,28
2020/03/17,21:10,0.15,ND,30
2020/03/17,21:20,0.16,ND,30
2020/03/17,21:30,0.16,ND,32
2020/03/17,21:40,0.16,ND,34
2020/03/17,21:50,0.15,ND,33
2020/03/17,22:00,0.17,ND,34
2020/03/17,22:10,0.16,ND,33
2020/03/17,22:20,0.15,ND,31
2020/03/17,22:30,0.17,ND,31
2020/03/17,22:40,0.16,ND,33
2020/03/17,22:50,0.18,ND,35
2020/03/17,23:00,0.16,ND,33
2020/03/17,23:10,0.18,ND,30
2020/03/17,23:20,0.18,ND,32
2020/03/17,23:30,0.18,ND,30
2020/03/17,23:40,0.19,ND,29
2020/03/17,23:50,0.19,ND,26
